Location: Rometta
(44.2000°N, 10.0500°E)
Time: 22:31:06
(UTC+00:00)

Cosmos 1833 Rocket - Pass Details

Date: 20 January 2021
Orbit: 833 x 839 km, 71.0° (Epoch: 04 March)

Event Time Altitude Azimuth Distance (km) Brightness Sun altitude
Rises 17:48:51 0° 344° (NNW) 3,390 5.9 -16.9°
Reaches altitude 10° 17:52:04 10° 2° (N) 2,453 5.0 -17.4°
Enters shadow 17:55:00 18° 33° (NNE) 1,940 4.2 -18.0°
